Weather History for Willimantic, CT

Change the Weather History Date:

Friday, December 20, 2013

  Actual Average Record
Temperature  
Mean Temperature 38 °F -  
Max Temperature 52 °F 34 °F 60 °F (1957)
Min Temperature 25 °F 14 °F -8 °F (1980)
Degree Days  
Heating Degree Days 26    
Moisture  
Dew Point 28 °F    
Average Humidity 74    
Maximum Humidity 96    
Minimum Humidity 43    
Precipitation  
Precipitation 0.00 in - - ()
Sea Level Pressure  
Sea Level Pressure 30.04 in    
Wind  
Wind Speed 2 mph (SSW)    
Max Wind Speed 9 mph    
Max Gust Speed -    
Visibility 9 miles    
Events      
Averages and records for this station are not official NWS values.
T = Trace of Precipitation, MM = Missing Value Source: NWS Daily Summary

Daily Weather History Graph

Daily Weather History Graph

Search for Another Location

Airport:

Trip Planner

Search our weather history database for the weather conditions in past years. The results will help you decide how hot, cold, wet, or windy it might be!

Date:

Astronomy

Dec. 20, 2013 Rise Set
Actual Time 7:12 AM EST 4:20 PM EST
Civil Twilight 6:40 AM EST 4:52 PM EST
Nautical Twilight 6:05 AM EST 5:27 PM EST
Astronomical Twilight 5:31 AM EST 6:01 PM EST
Moon 7:41 PM EST (12/20) 9:02 AM EST (12/20)
Length of Visible Light 10h 11m
Length of Day
9h 08m
Waning Gibbous, 90% of the Moon is Illuminated
Dec 20
Waning Gibbous
Dec 25
Last Quarter
Jan 1
New
Jan 7
First Quarter
Jan 15
Full

Hourly Weather History & Observations

Time (EST) Temp. Windchill Dew Point Humidity Pressure Visibility Wind Dir Wind Speed Gust Speed Precip Events Conditions
12:52 AM 28.9 °F - 26.1 °F 89% 30.12 in 10.0 mi Calm Calm - N/A   Clear
1:52 AM 28.0 °F 24.2 °F 25.0 °F 88% 30.13 in 9.0 mi NE 3.5 mph - N/A   Mostly Cloudy
2:52 AM 28.9 °F - 25.0 °F 85% 30.12 in 10.0 mi Calm Calm - N/A   Mostly Cloudy
3:52 AM 28.0 °F 24.2 °F 25.0 °F 88% 30.12 in 9.0 mi NNE 3.5 mph - N/A   Clear
4:52 AM 27.0 °F - 24.1 °F 89% 30.12 in 8.0 mi Calm Calm - N/A   Clear
5:52 AM 27.0 °F - 24.1 °F 89% 30.13 in 8.0 mi Calm Calm - N/A   Clear
6:52 AM 26.1 °F - 24.1 °F 92% 30.12 in 6.0 mi Calm Calm - N/A   Clear
7:52 AM 25.0 °F - 24.1 °F 96% 30.11 in 5.0 mi Calm Calm - N/A   Clear
8:52 AM 30.0 °F - 26.1 °F 85% 30.10 in 7.0 mi Calm Calm - N/A   Clear
9:52 AM 34.0 °F - 27.0 °F 75% 30.08 in 9.0 mi Calm Calm - N/A   Clear
10:52 AM 43.0 °F - 30.9 °F 62% 30.05 in 10.0 mi Calm Calm - N/A   Clear
11:52 AM 50.0 °F - 30.9 °F 48% 29.98 in 10.0 mi SSW 5.8 mph - N/A   Clear
12:52 PM 52.0 °F - 30.0 °F 43% 29.97 in 10.0 mi SSW 9.2 mph - N/A   Clear
1:52 PM 52.0 °F - 30.0 °F 43% 29.96 in 10.0 mi SW 8.1 mph - N/A   Clear
2:52 PM 50.0 °F - 30.0 °F 46% 29.96 in 10.0 mi SSW 6.9 mph - N/A   Partly Cloudy
3:52 PM 48.9 °F - 30.0 °F 48% 29.97 in 10.0 mi South 3.5 mph - N/A   Mostly Cloudy
4:52 PM 45.0 °F 41.2 °F 30.9 °F 58% 29.96 in 10.0 mi SSW 6.9 mph - N/A   Clear
5:52 PM 45.0 °F 42.6 °F 30.9 °F 58% 29.98 in 10.0 mi SSW 4.6 mph - N/A   Overcast
6:52 PM 43.0 °F - 30.9 °F 62% 29.98 in 10.0 mi Calm Calm - N/A   Mostly Cloudy
7:52 PM 37.0 °F - 30.9 °F 79% 30.00 in 10.0 mi Calm Calm - N/A   Clear
8:52 PM 35.1 °F - 30.0 °F 82% 29.99 in 10.0 mi Calm Calm - N/A   Clear
9:52 PM 33.1 °F - 28.9 °F 85% 30.00 in 10.0 mi Calm Calm - N/A   Clear
10:52 PM 33.1 °F - 30.0 °F 89% 30.00 in 10.0 mi Calm Calm - N/A   Overcast
11:52 PM 34.0 °F - 30.0 °F 85% 29.98 in 10.0 mi Calm Calm - N/A   Mostly Cloudy